Regional Weather Roundup
Issued by NWS Sioux Falls, SD

Home | Current Version | Previous Version | Graphics & Text | Print | Product List | Glossary On
Versions: 1 2 3 4 5 6 7 8 9 10 11 12 13 14 15 16 17 18 19 20 21 22 23 24 25 26 27 28 29 30 31 32 33 34 35 36 37 38 39 40 41 42 43 44 45 46 47 48 49 50
000
ASUS43 KFSD 200802
RWRFSD

WEATHER ROUNDUP FOR SE SOUTH DAKOTA/SW MINNESOTA/NW IOWA
NATIONAL WEATHER SERVICE SIOUX FALLS SD
200 AM CST SAT DEC 20 2014

NOTE: "FAIR" INDICATES FEW OR NO CLOUDS BELOW 12,000 FEET WITH NO
SIGNIFICANT WEATHER AND OR OBSTRUCTIONS TO VISIBILITY.


SDZ038>040-050-052>070-200900-
SOUTHEAST SOUTH DAKOTA

CITY           SKY/WX    TMP DP  RH WIND       PRES   REMARKS
CHAMBERLAIN    NOT AVBL
HURON          CLOUDY    27  26  96 S10       30.03R FOG     WCI  17
MADISON        CLOUDY    28  28 100 S14       30.03R FOG     WCI  17
MITCHELL       CLOUDY    27  27 100 S6        30.04S FOG     WCI  20
SIOUX FALLS    CLOUDY    31  28  89 S8        30.06R WCI  23
WINNER         FAIR      22  16  78 S3        29.97S
YANKTON        CLOUDY    34  28  80 S5        30.06S WCI  30
$$

MNZ071-072-080-081-089-090-097-098-200900-
SOUTHWEST MINNESOTA

CITY           SKY/WX    TMP DP  RH WIND       PRES   REMARKS
FAIRMONT       CLOUDY    30  27  86 S10       30.12S WCI  21
JACKSON        CLOUDY    32  28  86 S10       30.10S FOG     WCI  24
LUVERNE        CLOUDY    32  30  93 S7        30.07S FOG     WCI  26
MARSHALL       CLOUDY    30  27  86 SW14      30.07S WCI  20
MONTEVIDEO     CLOUDY    30  30 100 SW8       30.08F FOG     WCI  23
PIPESTONE      CLOUDY    30  28  93 SW5       30.04S FOG     WCI  25
REDWOOD FALLS  CLOUDY    32  28  85 S14       30.10S FOG     WCI  22
TRACY          CLOUDY    32  29  91 S9        30.07S FOG     WCI  24
WINDOM         CLOUDY    30  28  93 S12G17    30.09S FOG     WCI  21
WORTHINGTON    CLOUDY    28  28 100 S9        30.08S WCI  20
$$

IAZ001>003-012>014-020>022-031-032-NEZ013-014-SDZ071-200900-
NORTHWEST IOWA

CITY           SKY/WX    TMP DP  RH WIND       PRES   REMARKS
DENISON        CLOUDY    30  30 100 S13       30.10F FOG     WCI  20
ESTHERVILLE    CLOUDY    29  28  96 S14       30.11S FOG     WCI  18
SIOUX CITY     CLOUDY    32  29  88 S10       30.10S FOG     WCI  24
SPENCER        CLOUDY    30  28  92 S13       30.11S FOG     WCI  20
$$

ABBREVIATIONS USED IN REMARKS
   TC - TEMPERATURE IN CELSIUS
  WCI - WIND CHILL INDEX
   HX - HEAT INDEX
  VSB - VISIBILITY




USA.gov is the U.S. government's official web portal to all federal, state and local government web resources and services.